Voltar ao catálogo

STARLINK-30789

AtivoComunicaçõesVLEO
NORAD 58166·PAYLOAD·🇺🇸 United States

Lançado Oct 29, 2023 de Vandenberg Space Force Base

Loading…

Próximas Passagens (próximas 24 horas)

TLE

AtualizadoSource: CelesTrak SupGP

Época: Sep 14, 2026, 22:30 UTC

1 58166C 23166S   26257.93798611  .00043984  00000+0  12999-2 0  2576
2 58166  53.1587  59.3798 0001163  85.2281 180.4854 15.34358567    13

Acompanhe STARLINK-30789 em tempo real com AllMySat

Download on the App Store